WetterOnline ( http://www.wetteronline.de )

Wetter aktuell Schollbrunn

Aktuelles Wetter: Neuhütten/Spessart (340m)

6-stündlich | Neueste Meldungen
Ortszeit Temperatur Wetter
Mi, 20.02. 7:00 -2.1° C bedeckt
Mi, 20.02. 1:00 0.8° C wolkig
Di, 19.02. 19:00 4.6° C leicht bewölkt
Di, 19.02. 13:00 4.6° C Sprühregen
Di, 19.02. 7:00 1.6° C bewölkt
Di, 19.02. 1:00 -0.9° C wolkenlos
Mo, 18.02. 19:00 6.0° C wolkenlos
Mo, 18.02. 13:00 8.9° C wolkenlos
Ortszeit Temperatur Wetter
Mi, 20.02. 11:00 4.6° C bewölkt
Mi, 20.02. 10:50 4.6° C bewölkt
Mi, 20.02. 10:40 4.6° C bewölkt
Mi, 20.02. 10:30 2.9° C bedeckt
Mi, 20.02. 10:20 2.9° C bedeckt
Mi, 20.02. 10:10 1.9° C bedeckt
Mi, 20.02. 10:00 0.8° C bedeckt
Mi, 20.02. 9:30 -0.2° C bewölkt
Mi, 20.02. 9:00 -0.9° C bedeckt
Mi, 20.02. 8:30 -1.5° C bedeckt
Mi, 20.02. 8:00 -2.0° C bedeckt
Ortszeit Relative Feuchte Sichtweite
Mi, 20.02. 7:00 99% 1.9 km
Mi, 20.02. 1:00 99% 17 km
Di, 19.02. 19:00 80% 45 km
Di, 19.02. 13:00 88% 16 km
Di, 19.02. 7:00 88% 24 km
Di, 19.02. 1:00 97% 8 km
Mo, 18.02. 19:00 76% 30 km
Mo, 18.02. 13:00 60% 23 km
Ortszeit Relative Feuchte Sichtweite
Mi, 20.02. 11:00 80% 19 km
Mi, 20.02. 10:50 80% -
Mi, 20.02. 10:40 83% -
Mi, 20.02. 10:30 93% 11 km
Mi, 20.02. 10:20 93% -
Mi, 20.02. 10:10 94% -
Mi, 20.02. 10:00 96% 12 km
Mi, 20.02. 9:30 95% 13 km
Mi, 20.02. 9:00 96% 14 km
Mi, 20.02. 8:30 95% 14 km
Mi, 20.02. 8:00 95% 8 km
Ortszeit Niederschlagsmenge Niederschlagsart
Mi, 20.02. 7:00 0.0 l/m2 in 12 Std. -
Mi, 20.02. 1:00 0.0 l/m2 in 6 Std. -
Di, 19.02. 19:00 0.5 l/m2 in 12 Std. Sprühregen
Di, 19.02. 13:00 0.4 l/m2 in 6 Std. Regen
Di, 19.02. 7:00 0.0 l/m2 in 12 Std. -
Di, 19.02. 1:00 0.0 l/m2 in 6 Std. -
Mo, 18.02. 19:00 0.0 l/m2 in 12 Std. -
Mo, 18.02. 13:00 0.0 l/m2 in 6 Std. -
Ortszeit Niederschlagsmenge Niederschlagsart
Mi, 20.02. 11:00 0.0 l/m2 in 1 Std. -
Mi, 20.02. 10:50 keine Meldung -
Mi, 20.02. 10:40 keine Meldung -
Mi, 20.02. 10:30 0.0 l/m2 in 1 Std. -
Mi, 20.02. 10:20 keine Meldung -
Mi, 20.02. 10:10 keine Meldung -
Mi, 20.02. 10:00 0.0 l/m2 in 1 Std. -
Mi, 20.02. 9:30 0.0 l/m2 in 1 Std. -
Mi, 20.02. 9:00 0.0 l/m2 in 1 Std. -
Mi, 20.02. 8:30 0.0 l/m2 in 1 Std. -
Mi, 20.02. 8:00 0.0 l/m2 in 1 Std. -
Ortszeit Stärke Spitze Richtung
km/h Bft. km/h Grad Sektor
Mi, 20.02. 7:00 4 1 7 220° SW
Mi, 20.02. 1:00 4 1 14 260° W
Di, 19.02. 19:00 7 2 22 210° SW
Di, 19.02. 13:00 4 1 25 270° W
Di, 19.02. 7:00 4 1 14 190° S
Di, 19.02. 1:00 4 1 11 40° NO
Mo, 18.02. 19:00 2 1 15 150° SO
Mo, 18.02. 13:00 7 2 11 60° NO
Ortszeit Stärke Spitze Richtung
km/h Bft. km/h Grad Sektor
Mi, 20.02. 11:00 4 1 4 190° S
Mi, 20.02. 10:50 4 1 - 190° S
Mi, 20.02. 10:40 4 1 - 180° S
Mi, 20.02. 10:30 2 1 4 60° NO
Mi, 20.02. 10:20 2 1 - 60° NO
Mi, 20.02. 10:10 0 0 - 110° O
Mi, 20.02. 10:00 4 1 4 220° SW
Mi, 20.02. 9:30 4 1 4 130° SO
Mi, 20.02. 9:00 0 0 4 - -
Mi, 20.02. 8:30 2 1 4 60° NO
Mi, 20.02. 8:00 4 1 7 360° N
Ortszeit Untergrenze Bedeckung Gattung
total tief tief mittel hoch
Mi, 20.02. 7:00 3600 m 8/8 8/8 - - -
Mi, 20.02. 1:00 9000 m 7/8 0/8 - - -
Di, 19.02. 19:00 1080 m 2/8 2/8 - - -
Di, 19.02. 13:00 960 m 8/8 8/8 - - -
Di, 19.02. 7:00 1500 m 8/8 6/8 - - -
Di, 19.02. 1:00 - 0/8 0/8 - - -
Mo, 18.02. 19:00 7500 m 0/8 0/8 - - -
Mo, 18.02. 13:00 - 0/8 0/8 - - -
Ortszeit Bedeckungsgrad in Achtel und Wolkenuntergrenze
Mi, 20.02. 11:00 4(3300m) 7(4800m) 7(6000m)
Mi, 20.02. 10:50 4(3300m) 7(4800m) 7(6000m)
Mi, 20.02. 10:40 5(3300m) 7(4800m) 7(5700m)
Mi, 20.02. 10:30 8(3300m) 8(4200m) 8(5400m)
Mi, 20.02. 10:20 8(3300m) 8(4200m) 8(5400m)
Mi, 20.02. 10:10 8(3300m) 8(4500m) 8(5700m)
Mi, 20.02. 10:00 8(3300m) 8(4500m) 8(4500m)
Mi, 20.02. 9:30 4(930m) 8(3300m) 8(4500m)
Mi, 20.02. 9:00 8(3300m) 8(4800m) 8(4500m)
Mi, 20.02. 8:30 8(3300m) 8(4800m)
Mi, 20.02. 8:00 8(3300m) 8(5100m) 8(6300m)
Ortszeit Luftdruck NN (hPa) Tendenz (hPa in 3 Std.)
Mi, 20.02. 7:00 1025 + 0,6
Mi, 20.02. 1:00 1024 + 0,5
Di, 19.02. 19:00 1022 + 0,4
Di, 19.02. 13:00 1022 + 1,0
Di, 19.02. 7:00 1020 + 0,2
Di, 19.02. 1:00 1020 0,0
Mo, 18.02. 19:00 1019 - 0,7
Mo, 18.02. 13:00 1021 - 1,5
Ortszeit Luftdruck NN (hPa) Tendenz (hPa in 3 Std.)
Mi, 20.02. 11:00 1026 + 1,5
Mi, 20.02. 10:50 1026 keine Meldung
Mi, 20.02. 10:40 1026 keine Meldung
Mi, 20.02. 10:30 1026 + 1,5
Mi, 20.02. 10:20 1026 keine Meldung
Mi, 20.02. 10:10 1026 keine Meldung
Mi, 20.02. 10:00 1026 + 1,5
Mi, 20.02. 9:30 1026 + 1,5
Mi, 20.02. 9:00 1026 + 1,2
Mi, 20.02. 8:30 1026 + 0,9
Mi, 20.02. 8:00 1025 + 0,7
Ortszeit Schneehöhe (cm)
Mi, 20.02. 7:00 0
Mi, 20.02. 1:00 0
Di, 19.02. 19:00 0
Di, 19.02. 13:00 0
Di, 19.02. 7:00 0
Di, 19.02. 1:00 0
Mo, 18.02. 19:00 0
Mo, 18.02. 13:00 0
Ortszeit Schneehöhe (cm)
Mi, 20.02. 11:00 0
Mi, 20.02. 10:50 0
Mi, 20.02. 10:40 0
Mi, 20.02. 10:30 0
Mi, 20.02. 10:20 0
Mi, 20.02. 10:10 0
Mi, 20.02. 10:00 0
Mi, 20.02. 9:30 0
Mi, 20.02. 9:00 0
Mi, 20.02. 8:30 0
Mi, 20.02. 8:00 0
Link zu dieser Seite / Seite empfehlen

Das Wetter in ...